Regional Weather Roundup
Issued by NWS Kansas City/Pleasant Hill, MO

Home | Current Version | Previous Version | Text Only | Print | Product List | Glossary On
Versions: 1 2 3 4 5 6 7 8 9 10 11 12 13 14 15 16 17 18 19 20 21 22 23 24 25 26 27 28 29 30 31 32 33 34 35 36 37 38 39 40 41 42 43 44 45 46 47 48 49 50
000
ASUS43 KEAX 211204
RWREAX

WEATHER ROUNDUP FOR EASTERN KANSAS AND NORTHWEST MISSOURI
NATIONAL WEATHER SERVICE KANSAS CITY/PLEASANT HILL MO
700 AM CDT TUE APR 21 2015

KSZ040-057-103>105-MOZ028-029-037-043-211300-
...KANSAS CITY METROPOLITAN AREA...

CITY           SKY/WX    TMP DP  RH WIND       PRES   REMARKS
K.C. INTL      MOCLDY    45  32  60 W6        29.86R
6HR MIN TEMP:  39; 6HR MAX TEMP:  46;

K.C. DOWNTOWN  MOCLDY    46  35  65 SW6       29.87R
6HR MIN TEMP:  44; 6HR MAX TEMP:  50;

LEES SUMMIT    PTCLDY    45  32  60 SW6       29.88R
6HR MIN TEMP:  42; 6HR MAX TEMP:  47;

OLATHE - IXD   MOCLDY    42  35  76 SW5       29.89R
6HR MIN TEMP:  40; 6HR MAX TEMP:  48;

OLATHE - OJC   CLOUDY    43  36  76 S3        29.87R
6HR MIN TEMP:  43; 6HR MAX TEMP:  49;

LAWRENCE       MOCLDY    41  34  76 CALM      29.88R

$$

MOZ001>008-011>017-020>025-030>033-038>040-044>046-053-054-211300-
...NORTHERN AND CENTRAL MISSOURI...

CITY           SKY/WX    TMP DP  RH WIND       PRES   REMARKS
ST. JOSEPH     MOCLDY    44  32  62 SW7       29.86R
6HR MIN TEMP:  43; 6HR MAX TEMP:  47;

MOSBY          MOSUNNY   46  32  57 W3        29.86R
WARRENSBURG    FAIR      43  34  70 SW5       29.88R
WHITEMAN AFB   PTCLDY    45  34  66 SW6       29.87R
6HR MIN TEMP:  44; 6HR MAX TEMP:  47;

CLINTON        PTCLDY    43  37  81 SW3       29.89R
SEDALIA        MOCLDY    46  34  62 W8        29.88R
6HR MIN TEMP:  44; 6HR MAX TEMP:  47;

WARSAW         NOT AVBL
MARSHALL       MOCLDY    48  36  61 SW5       29.87R
CHILLICOTHE      N/A     45  30  55 W3        29.84R
6HR MIN TEMP:  45; 6HR MAX TEMP:  48;

MOBERLY        MOCLDY    45  32  61 W6        29.84R
KIRKSVILLE     PTCLDY    42  26  53 W8        29.80R
6HR MIN TEMP:  42; 6HR MAX TEMP:  45;


$$

MOZ041-047>049-056>058-063>065-088>090-097-211300-
...EASTERN AND SOUTHERN MISSOURI...

CITY           SKY/WX    TMP DP  RH WIND       PRES   REMARKS
ST. LOUIS INTL MOCLDY    49  30  48 W12       29.84R
6HR MIN TEMP:  47; 6HR MAX TEMP:  49;

SPIRIT OF STL  PTCLDY    46  31  55 SW12      29.84R
COLUMBIA       MOCLDY    45  34  65 SW12      29.85R
JEFFERSON CITY CLOUDY    45  33  63 CALM      29.87R
MEXICO         MOCLDY    46  37  71 SW9       29.83R
HANNIBAL       PTCLDY    45  28  53 W9        29.81R
ROLLA          CLEAR     41  32  70 SW9       29.86R
LEBANON        CLEAR     46  34  61 W6        29.90R
OSAGE BEACH    CLEAR     43  32  65 SW3       29.88R
SPRINGFIELD    CLEAR     44  35  70 SW10      29.91R
BRANSON        PTCLDY    48  32  53 SW7       29.95R
NEVADA         CLEAR     45  37  76 SW6       29.91R
JOPLIN         MOCLDY    50  37  61 SW10      29.93R
WEST PLAINS    CLEAR     41  32  70 SW7       29.94R

$$

IAZ060-094-KSZ022-034>040-054-083-096-NEZ052-066-093-211300-
...KANSAS...SOUTHEAST NEBRASKA AND IOWA...

CITY           SKY/WX    TMP DP  RH WIND       PRES   REMARKS
TOPEKA         MOCLDY    43  34  70 CALM      29.88S
6HR MIN TEMP:  38; 6HR MAX TEMP:  46;

MANHATTAN      CLOUDY    37  35  92 SW3       29.88S
EMPORIA        MOCLDY    45  38  76 NW7       29.89R
CHANUTE        PTCLDY    48  40  73 SW9       29.90S
WICHITA        PTCLDY    43  38  82 SW7       29.89S
OMAHA          CLEAR     41  25  53 W12       29.81S WCI  34
LINCOLN        PTCLDY    41  29  62 W3        29.85S
FALLS CITY     MOCLDY    44  32  62 W7        29.84S
LAMONI         CLEAR     39  25  57 W10       29.79R WCI  32
DES MOINES     CLEAR     36  21  54 W3        29.76R

$$




USA.gov is the U.S. government's official web portal to all federal, state and local government web resources and services.